Date String (YYYY-MM-DD hh:mm:ss) UTC,Instrument flags,Ambient pressure (hPa),Sample flow (lpm),Bypass flow (lpm),Sample temperature (°C),Ambient temperature (°C),ASC tube jacket temperature (°C),LED temperature (°C),Box temperature (°C),Sample RH (%),Span deviation,Mass concentration (μg/m³),Mass concentration (μg/m³),Mass concentration (μg/m³)
DateTimeUTC,F1_M11,P_M11,Q1_M11,Q2_M11,T1_M11,T2_M11,T3_M11,T4_M11,T5_M11,U1_M11,ZSPAN_M11,X2_M11,X0_M11,X1_M11
2022-04-16 02:00:00,,0823.9,5.00,0.00,27.6,26.7,00.0,36.7,29.3,08.7,0000.0,0005.43,0016.23,0003.81
2022-04-16 02:01:00,,0823.9,5.01,0.00,27.6,26.7,00.0,36.7,29.3,08.7,0000.0,0005.38,0016.06,0003.80
2022-04-16 02:02:00,,0823.9,5.00,0.00,27.6,26.7,00.0,36.7,29.3,08.7,0000.0,0005.39,0015.81,0003.81
2022-04-16 02:03:00,,0823.9,5.00,0.00,27.6,26.7,00.0,36.6,29.3,08.7,0000.0,0005.38,0015.27,0003.81
2022-04-16 02:04:00,,0823.9,5.00,0.00,27.6,26.7,00.0,36.6,29.2,08.7,0000.0,0005.28,0014.42,0003.79
2022-04-16 02:05:00,,0823.9,4.99,0.00,27.6,26.7,00.0,36.6,29.3,08.7,0000.0,0005.25,0014.99,0003.78
2022-04-16 02:06:00,,0823.9,5.00,0.00,27.5,26.7,00.0,36.6,29.2,08.6,0000.0,0005.18,0015.16,0003.75
2022-04-16 02:07:00,,0824.0,4.99,0.00,27.5,26.7,00.0,36.6,29.2,08.6,0000.0,0005.19,0015.70,0003.75
2022-04-16 02:08:00,,0824.1,5.00,0.00,27.5,26.7,00.0,36.6,29.2,08.6,0000.0,0005.24,0016.41,0003.75
2022-04-16 02:09:00,,0824.1,5.00,0.00,27.5,26.7,00.0,36.6,29.2,08.6,0000.0,0005.26,0016.80,0003.74
2022-04-16 02:10:00,,0824.1,5.00,0.00,27.5,26.7,00.0,36.6,29.2,08.6,0000.0,0005.23,0017.19,0003.73
2022-04-16 02:11:00,,0824.2,5.00,0.00,27.5,26.7,00.0,36.5,29.2,08.6,0000.0,0005.13,0017.18,0003.73
2022-04-16 02:12:00,,0824.3,5.00,0.00,27.5,26.7,00.0,36.5,29.2,08.6,0000.0,0005.12,0017.38,0003.73
2022-04-16 02:13:00,,0824.3,5.01,0.00,27.5,26.7,00.0,36.5,29.2,08.6,0000.0,0005.11,0016.94,0003.73
2022-04-16 02:14:00,,0824.3,5.00,0.00,27.5,26.7,00.0,36.5,29.2,08.6,0000.0,0005.09,0016.99,0003.74
2022-04-16 02:15:00,,0824.3,4.99,0.00,27.5,26.7,00.0,36.5,29.2,08.6,0000.0,0005.16,0017.99,0003.76
2022-04-16 02:16:00,,0824.4,5.01,0.00,27.5,26.7,00.0,36.5,29.2,08.6,0000.0,0005.23,0017.50,0003.78
2022-04-16 02:17:00,,0824.4,5.00,0.00,27.5,26.8,00.0,36.5,29.2,08.6,0000.0,0005.27,0017.71,0003.81
2022-04-16 02:18:00,,0824.4,5.01,0.00,27.5,26.8,00.0,36.5,29.2,08.6,0000.0,0005.26,0019.11,0003.82
2022-04-16 02:19:00,,0824.4,5.00,0.00,27.5,26.8,00.0,36.5,29.2,08.6,0000.0,0005.28,0018.90,0003.84
2022-04-16 02:20:00,,0824.4,5.01,0.00,27.5,26.8,00.0,36.5,29.2,08.5,0000.0,0005.24,0019.22,0003.84
2022-04-16 02:21:00,,0824.5,5.01,0.00,27.5,26.7,00.0,36.5,29.2,08.6,0000.0,0005.24,0019.74,0003.84
2022-04-16 02:22:00,,0824.6,5.00,0.00,27.5,26.7,00.0,36.5,29.2,08.6,0000.0,0005.26,0020.14,0003.85
2022-04-16 02:23:00,,0824.6,5.00,0.00,27.5,26.7,00.0,36.5,29.2,08.5,0000.0,0005.23,0019.86,0003.83
2022-04-16 02:24:00,,0824.7,4.99,0.00,27.5,26.7,00.0,36.5,29.2,08.6,0000.8,0005.18,0019.48,0003.82
2022-04-16 02:25:00,,0824.7,4.99,0.00,27.5,26.7,00.0,36.5,29.2,08.6,0000.8,0005.18,0018.63,0003.81
2022-04-16 02:26:00,,0824.8,4.99,0.00,27.5,26.7,00.0,36.5,29.2,08.6,0001.2,0005.19,0017.50,0003.80
2022-04-16 02:27:00,,0824.9,4.99,0.00,27.5,26.7,00.0,36.5,29.2,08.7,0000.9,0005.13,0017.21,0003.78
2022-04-16 02:28:00,,0824.9,5.00,0.00,27.5,26.7,00.0,36.4,29.2,08.7,0000.0,0005.09,0016.86,0003.76
2022-04-16 02:29:00,,0824.9,5.00,0.00,27.5,26.6,00.0,36.4,29.2,08.7,0000.0,0005.12,0015.40,0003.74
2022-04-16 02:30:00,,0825.0,5.00,0.00,27.5,26.6,00.0,36.4,29.2,08.6,0000.0,0005.10,0015.77,0003.72
2022-04-16 02:31:00,,0825.1,5.01,0.00,27.5,26.6,00.0,36.4,29.2,08.5,0000.0,0005.06,0015.37,0003.72
2022-04-16 02:32:00,,0825.1,4.99,0.00,27.4,26.6,00.0,36.4,29.2,08.6,0000.0,0005.01,0014.35,0003.70
2022-04-16 02:33:00,,0825.1,4.99,0.00,27.4,26.5,00.0,36.4,29.2,08.5,0000.0,0005.04,0013.96,0003.69
2022-04-16 02:34:00,,0825.2,4.99,0.00,27.4,26.5,00.0,36.4,29.2,08.5,0000.0,0005.07,0014.04,0003.69
2022-04-16 02:35:00,,0825.2,5.01,0.00,27.4,26.5,00.0,36.4,29.1,08.4,0000.0,0005.08,0014.70,0003.67
2022-04-16 02:36:00,,0825.2,5.00,0.00,27.4,26.6,00.0,36.4,29.1,08.4,0000.0,0005.03,0014.90,0003.63
2022-04-16 02:37:00,,0825.3,5.00,0.00,27.4,26.6,00.0,36.4,29.2,08.4,0000.0,0004.96,0015.52,0003.59
2022-04-16 02:38:00,,0825.2,5.01,0.00,27.4,26.6,00.0,36.4,29.2,08.4,0000.0,0004.97,0015.59,0003.55
2022-04-16 02:39:00,,0825.2,5.00,0.00,27.4,26.6,00.0,36.4,29.1,08.4,0000.0,0004.92,0015.51,0003.53
2022-04-16 02:40:00,,0825.3,5.00,0.00,27.4,26.6,00.0,36.4,29.1,08.4,0000.0,0004.80,0015.18,0003.48
2022-04-16 02:41:00,,0825.3,4.99,0.00,27.4,26.6,00.0,36.4,29.1,08.5,0000.0,0004.76,0014.10,0003.46
2022-04-16 02:42:00,,0825.3,4.99,0.00,27.4,26.6,00.0,36.3,29.1,08.5,0000.0,0004.74,0013.76,0003.43
2022-04-16 02:43:00,,0825.4,5.00,0.00,27.4,26.5,00.0,36.3,29.1,08.5,0000.0,0004.74,0013.78,0003.40
2022-04-16 02:44:00,,0825.4,5.00,0.00,27.4,26.5,00.0,36.3,29.1,08.6,0000.0,0004.68,0013.92,0003.37
2022-04-16 02:45:00,,0825.4,4.99,0.00,27.4,26.5,00.0,36.3,29.2,08.6,0000.0,0004.67,0014.37,0003.35
2022-04-16 02:46:00,,0825.5,5.01,0.00,27.4,26.5,00.0,36.3,29.2,08.6,0000.0,0004.66,0013.71,0003.34
2022-04-16 02:47:00,,0825.4,5.00,0.00,27.4,26.5,00.0,36.3,29.2,08.7,0000.0,0004.69,0013.97,0003.35
2022-04-16 02:48:00,,0825.5,5.00,0.00,27.4,26.5,00.0,36.3,29.2,08.7,0000.0,0004.71,0013.41,0003.36
2022-04-16 02:49:00,,0825.5,4.99,0.00,27.4,26.5,00.0,36.3,29.2,08.7,0000.0,0004.77,0015.51,0003.38
2022-04-16 02:50:00,,0825.5,5.00,0.00,27.4,26.5,00.0,36.3,29.2,08.7,0000.0,0004.82,0016.26,0003.38
2022-04-16 02:51:00,,0825.6,5.01,0.00,27.4,26.5,00.0,36.3,29.2,08.7,0000.0,0004.92,0016.70,0003.39
2022-04-16 02:52:00,,0825.6,5.00,0.00,27.4,26.4,00.0,36.3,29.2,08.7,0000.0,0004.95,0016.59,0003.39
2022-04-16 02:53:00,,0825.7,5.00,0.00,27.4,26.5,00.0,36.3,29.2,08.6,0000.0,0004.97,0016.83,0003.38
2022-04-16 02:54:00,,0825.7,5.00,0.00,27.4,26.5,00.0,36.3,29.2,08.6,0000.0,0004.92,0017.67,0003.38
2022-04-16 02:55:00,,0825.7,5.00,0.00,27.4,26.5,00.0,36.3,29.2,08.6,0000.0,0004.90,0017.94,0003.37
2022-04-16 02:56:00,,0825.7,4.99,0.00,27.4,26.5,00.0,36.3,29.2,08.6,0000.0,0004.90,0017.78,0003.36
2022-04-16 02:57:00,,0825.8,4.99,0.00,27.4,26.5,00.0,36.3,29.2,08.5,0000.0,0004.89,0018.11,0003.34
2022-04-16 02:58:00,,0825.9,5.02,0.00,27.4,26.5,00.0,36.3,29.2,08.5,0000.0,0004.85,0018.00,0003.31
2022-04-16 02:59:00,,0825.9,5.00,0.00,27.4,26.5,00.0,36.3,29.2,08.5,0000.0,0004.83,0018.04,0003.28
